"Period start","avg(HW err(1)/warn(2) (#))","avg(Visibility (m))","avg(Weather code (#))","avg(Precip intensity (mm/h))","min(HW err(1)/warn(2) (#))","max(HW err(1)/warn(2) (#))","std(HW err(1)/warn(2) (#))","med(HW err(1)/warn(2) (#))","min(Visibility (m))","max(Visibility (m))","std(Visibility (m))","med(Visibility (m))","min(Weather code (#))","max(Weather code (#))","std(Weather code (#))","med(Weather code (#))","min(Precip intensity (mm/h))","max(Precip intensity (mm/h))","std(Precip intensity (mm/h))","med(Precip intensity (mm/h))"
2016-07-24 00:00:00,0,44918,0,0.00,0,0,0,0,28644,50000,6216,46648,0,0,0,0,0.00,0.00,0.00,0.00
2016-07-24 00:10:00,0,41950,0,0.00,0,0,0,0,27905,50000,8973,47102,0,0,0,0,0.00,0.00,0.00,0.00
2016-07-24 00:20:00,0,45285,0,0.00,0,0,0,0,36328,50000,4615,46410,0,0,0,0,0.00,0.00,0.00,0.00
2016-07-24 00:30:00,0,48090,0,0.00,0,0,0,0,41826,50000,2850,50000,0,0,0,0,0.00,0.00,0.00,0.00
2016-07-24 00:40:00,0,26330,28,0.11,0,0,0,0,13453,45225,11032,21480,0,61,28,26,0.00,0.30,0.14,0.00
2016-07-24 00:50:00,0,44238,33,0.05,0,0,0,0,38317,50000,3689,44943,0,61,27,51,0.00,0.20,0.07,0.00
2016-07-24 01:00:00,0,43452,0,0.00,0,0,0,0,37529,50000,3739,44281,0,0,0,0,0.00,0.00,0.00,0.00
2016-07-24 01:10:00,0,49071,0,0.00,0,0,0,0,46008,50000,1443,50000,0,0,0,0,0.00,0.00,0.00,0.00
2016-07-24 01:20:00,0,47567,0,0.00,0,0,0,0,42497,50000,3286,49722,0,0,0,0,0.00,0.00,0.00,0.00
2016-07-24 01:30:00,0,32073,44,0.91,0,0,0,0,17904,46779,9382,32360,0,61,22,51,0.00,3.50,1.17,0.42
2016-07-24 01:40:00,0,30101,57,0.53,0,0,0,0,15935,47908,9268,29585,52,61,4,61,0.05,1.25,0.42,0.43
2016-07-24 01:50:00,0,39385,56,0.25,0,0,0,0,28142,50000,9157,39662,51,61,5,56,0.00,1.55,0.44,0.05
2016-07-24 02:00:00,0,32552,62,11.64,0,0,0,0,10697,50000,16726,35862,61,63,1,61,0.20,43.10,13.61,3.80
2016-07-24 02:10:00,0,16208,62,14.12,0,0,0,0,8883,31758,6270,14656,61,62,0,62,2.80,29.65,9.15,11.20
2016-07-24 02:20:00,0,27630,61,2.67,0,0,0,0,20489,36867,5118,28448,61,61,0,61,0.35,6.05,1.85,2.12
2016-07-24 02:30:00,0,40098,61,1.74,0,0,0,0,31631,50000,7437,38146,61,61,0,61,0.45,4.00,1.07,1.68
2016-07-24 02:40:00,0,39078,61,2.16,0,0,0,0,24431,49893,7307,39559,61,62,0,61,0.05,13.55,3.99,0.53
2016-07-24 02:50:00,0,45896,0,0.00,0,0,0,0,36411,50000,4850,48292,0,0,0,0,0.00,0.00,0.00,0.00
2016-07-24 03:00:00,0,47386,0,0.00,0,0,0,0,44337,50000,2026,47382,0,0,0,0,0.00,0.00,0.00,0.00
2016-07-24 03:10:00,0,46510,0,0.00,0,0,0,0,38184,50000,3833,48014,0,0,0,0,0.00,0.00,0.00,0.00
2016-07-24 03:20:00,0,48234,0,0.00,0,0,0,0,40190,50000,3045,49969,0,0,0,0,0.00,0.00,0.00,0.00
2016-07-24 03:30:00,0,49991,0,0.00,0,0,0,0,49910,50000,27,50000,0,0,0,0,0.00,0.00,0.00,0.00
2016-07-24 03:40:00,0,46133,0,0.00,0,0,0,0,30463,50000,5996,49428,0,0,0,0,0.00,0.00,0.00,0.00
2016-07-24 03:50:00,0,44502,0,0.00,0,0,0,0,38215,50000,4815,44094,0,0,0,0,0.00,0.00,0.00,0.00
2016-07-24 04:00:00,0,45494,0,0.00,0,0,0,0,38060,50000,4507,46164,0,0,0,0,0.00,0.00,0.00,0.00
2016-07-24 04:10:00,0,42722,0,0.00,0,0,0,0,25216,50000,9008,47678,0,0,0,0,0.00,0.00,0.00,0.00
2016-07-24 04:20:00,0,46699,0,0.00,0,0,0,0,39343,50000,3706,48272,0,0,0,0,0.00,0.00,0.00,0.00
2016-07-24 04:30:00,0,43935,0,0.00,0,0,0,0,32816,50000,6403,47306,0,0,0,0,0.00,0.00,0.00,0.00
2016-07-24 04:40:00,0,44256,0,0.00,0,0,0,0,28842,50000,6972,47376,0,0,0,0,0.00,0.00,0.00,0.00
2016-07-24 04:50:00,0,47681,0,0.00,0,0,0,0,38591,50000,3713,49714,0,0,0,0,0.00,0.00,0.00,0.00
2016-07-24 05:00:00,0,39882,0,0.00,0,0,0,0,25596,50000,8067,41139,0,0,0,0,0.00,0.00,0.00,0.00
2016-07-24 05:10:00,0,49045,0,0.00,0,0,0,0,47164,50000,1191,50000,0,0,0,0,0.00,0.00,0.00,0.00
2016-07-24 05:20:00,0,47714,0,0.00,0,0,0,0,43920,50000,2097,48115,0,0,0,0,0.00,0.00,0.00,0.00
2016-07-24 05:30:00,0,41196,0,0.00,0,0,0,0,30236,50000,6516,43143,0,0,0,0,0.00,0.00,0.00,0.00
2016-07-24 05:40:00,0,40780,0,0.00,0,0,0,0,31808,50000,6454,40644,0,0,0,0,0.00,0.00,0.00,0.00
2016-07-24 05:50:00,0,42031,0,0.00,0,0,0,0,32668,50000,6051,43344,0,0,0,0,0.00,0.00,0.00,0.00
2016-07-24 06:00:00,0,38480,0,0.00,0,0,0,0,32181,45475,4324,38089,0,0,0,0,0.00,0.00,0.00,0.00
2016-07-24 06:10:00,0,32915,24,1.64,0,0,0,0,15008,50000,13131,36020,0,61,30,0,0.00,8.80,2.78,0.00
2016-07-24 06:20:00,0,26847,37,1.52,0,0,0,0,6822,41132,10043,25398,0,61,30,61,0.00,7.55,2.30,0.40
2016-07-24 06:30:00,0,21734,43,16.01,0,0,0,0,5087,49896,15955,16470,0,63,28,61,0.00,57.75,20.60,3.42
2016-07-24 06:40:00,0,49381,0,0.00,0,0,0,0,47506,50000,770,49658,0,0,0,0,0.00,0.00,0.00,0.00
2016-07-24 06:50:00,0,48250,0,0.00,0,0,0,0,43228,50000,2250,49316,0,0,0,0,0.00,0.00,0.00,0.00
2016-07-24 07:00:00,0,49468,0,0.00,0,0,0,0,46110,50000,1170,50000,0,0,0,0,0.00,0.00,0.00,0.00
2016-07-24 07:10:00,0,49116,0,0.00,0,0,0,0,42341,50000,2286,50000,0,0,0,0,0.00,0.00,0.00,0.00
2016-07-24 07:20:00,0,48604,0,0.00,0,0,0,0,42267,50000,2448,50000,0,0,0,0,0.00,0.00,0.00,0.00
2016-07-24 07:30:00,0,48738,0,0.00,0,0,0,0,40130,50000,2984,50000,0,0,0,0,0.00,0.00,0.00,0.00
2016-07-24 07:40:00,0,49694,0,0.00,0,0,0,0,46936,50000,919,50000,0,0,0,0,0.00,0.00,0.00,0.00
2016-07-24 07:50:00,0,47306,30,0.36,0,0,0,0,38782,50000,4009,50000,0,61,30,30,0.00,1.10,0.43,0.10
2016-07-24 08:00:00,0,49429,22,0.02,0,0,0,0,47054,50000,896,49864,0,61,28,0,0.00,0.20,0.06,0.00
2016-07-24 08:10:00,0,33171,55,4.81,0,0,0,0,19123,50000,8984,31970,0,62,18,61,0.00,19.60,5.59,3.48
2016-07-24 08:20:00,0,44697,36,0.26,0,0,0,0,37930,50000,5029,45746,0,61,29,56,0.00,0.90,0.34,0.05
2016-07-24 08:30:00,0,41428,41,0.69,0,0,0,0,27447,48529,5894,43994,0,61,27,56,0.00,3.25,1.04,0.12
2016-07-24 08:40:00,0,46474,0,0.00,0,0,0,0,34636,50000,4348,47348,0,0,0,0,0.00,0.00,0.00,0.00
2016-07-24 08:50:00,0,45038,0,0.00,0,0,0,0,35717,50000,5109,46487,0,0,0,0,0.00,0.00,0.00,0.00
2016-07-24 09:00:00,0,48929,0,0.00,0,0,0,0,46791,50000,1053,49022,0,0,0,0,0.00,0.00,0.00,0.00
2016-07-24 09:10:00,0,49890,0,0.00,0,0,0,0,48899,50000,330,50000,0,0,0,0,0.00,0.00,0.00,0.00
2016-07-24 09:20:00,0,49116,0,0.00,0,0,0,0,46872,50000,1265,50000,0,0,0,0,0.00,0.00,0.00,0.00
2016-07-24 09:30:00,0,49405,0,0.00,0,0,0,0,44428,50000,1663,50000,0,0,0,0,0.00,0.00,0.00,0.00
2016-07-24 09:40:00,0,44174,0,0.00,0,0,0,0,26582,50000,7820,49530,0,0,0,0,0.00,0.00,0.00,0.00
2016-07-24 09:50:00,0,48461,0,0.00,0,0,0,0,43040,50000,2568,50000,0,0,0,0,0.00,0.00,0.00,0.00
2016-07-24 10:00:00,0,45606,0,0.00,0,0,0,0,36973,50000,4078,47168,0,0,0,0,0.00,0.00,0.00,0.00
2016-07-24 10:10:00,0,47671,0,0.00,0,0,0,0,40968,50000,2967,49212,0,0,0,0,0.00,0.00,0.00,0.00
2016-07-24 10:20:00,0,48121,33,0.07,0,0,0,0,42476,50000,2813,50000,0,61,27,51,0.00,0.35,0.12,0.00
2016-07-24 10:30:00,0,49183,31,0.14,0,0,0,0,44731,50000,1568,49886,0,51,25,51,0.00,1.00,0.29,0.00
2016-07-24 10:40:00,0,49512,0,0.00,0,0,0,0,46837,50000,1029,50000,0,0,0,0,0.00,0.00,0.00,0.00
2016-07-24 10:50:00,0,49809,0,0.00,0,0,0,0,48090,50000,573,50000,0,0,0,0,0.00,0.00,0.00,0.00
2016-07-24 11:00:00,0,48931,0,0.00,0,0,0,0,43183,50000,2237,50000,0,0,0,0,0.00,0.00,0.00,0.00
2016-07-24 11:10:00,0,50000,0,0.00,0,0,0,0,50000,50000,0,50000,0,0,0,0,0.00,0.00,0.00,0.00
2016-07-24 11:20:00,0,49832,0,0.00,0,0,0,0,48320,50000,504,50000,0,0,0,0,0.00,0.00,0.00,0.00
2016-07-24 11:30:00,0,49664,0,0.00,0,0,0,0,46637,50000,1009,50000,0,0,0,0,0.00,0.00,0.00,0.00
2016-07-24 11:40:00,0,49846,0,0.00,0,0,0,0,48660,50000,400,50000,0,0,0,0,0.00,0.00,0.00,0.00
2016-07-24 11:50:00,0,49478,0,0.00,0,0,0,0,45803,50000,1262,50000,0,0,0,0,0.00,0.00,0.00,0.00
2016-07-24 12:00:00,0,50000,0,0.00,0,0,0,0,50000,50000,0,50000,0,0,0,0,0.00,0.00,0.00,0.00
2016-07-24 12:10:00,0,49764,0,0.00,0,0,0,0,48627,50000,480,50000,0,0,0,0,0.00,0.00,0.00,0.00
2016-07-24 12:20:00,0,50000,0,0.00,0,0,0,0,50000,50000,0,50000,0,0,0,0,0.00,0.00,0.00,0.00
2016-07-24 12:30:00,0,49866,0,0.00,0,0,0,0,48661,50000,402,50000,0,0,0,0,0.00,0.00,0.00,0.00
2016-07-24 12:40:00,0,49769,0,0.00,0,0,0,0,47693,50000,692,50000,0,0,0,0,0.00,0.00,0.00,0.00
2016-07-24 12:50:00,0,49776,0,0.00,0,0,0,0,48466,50000,485,50000,0,0,0,0,0.00,0.00,0.00,0.00
2016-07-24 13:00:00,0,49840,0,0.00,0,0,0,0,48463,50000,459,50000,0,0,0,0,0.00,0.00,0.00,0.00
2016-07-24 13:10:00,0,50000,0,0.00,0,0,0,0,50000,50000,0,50000,0,0,0,0,0.00,0.00,0.00,0.00
2016-07-24 13:20:00,0,50000,0,0.00,0,0,0,0,50000,50000,0,50000,0,0,0,0,0.00,0.00,0.00,0.00
2016-07-24 13:30:00,0,50000,0,0.00,0,0,0,0,50000,50000,0,50000,0,0,0,0,0.00,0.00,0.00,0.00
2016-07-24 13:40:00,0,50000,0,0.00,0,0,0,0,50000,50000,0,50000,0,0,0,0,0.00,0.00,0.00,0.00
2016-07-24 13:50:00,0,50000,0,0.00,0,0,0,0,50000,50000,0,50000,0,0,0,0,0.00,0.00,0.00,0.00
2016-07-24 14:00:00,0,50000,0,0.00,0,0,0,0,50000,50000,0,50000,0,0,0,0,0.00,0.00,0.00,0.00
2016-07-24 14:10:00,1,50000,0,0.00,0,2,1,0,50000,50000,0,50000,0,0,0,0,0.00,0.00,0.00,0.00
2016-07-24 14:20:00,2,50000,0,0.00,0,2,1,2,50000,50000,0,50000,0,0,0,0,0.00,0.00,0.00,0.00
2016-07-24 14:30:00,2,50000,0,0.00,2,2,0,2,50000,50000,0,50000,0,0,0,0,0.00,0.00,0.00,0.00
2016-07-24 14:40:00,2,50000,0,0.00,2,2,0,2,50000,50000,0,50000,0,0,0,0,0.00,0.00,0.00,0.00
2016-07-24 14:50:00,2,50000,0,0.00,2,2,0,2,50000,50000,0,50000,0,0,0,0,0.00,0.00,0.00,0.00
2016-07-24 15:00:00,2,50000,0,0.00,2,2,0,2,50000,50000,0,50000,0,0,0,0,0.00,0.00,0.00,0.00
2016-07-24 15:10:00,1,50000,0,0.00,0,2,1,0,50000,50000,0,50000,0,0,0,0,0.00,0.00,0.00,0.00
2016-07-24 15:20:00,0,50000,0,0.00,0,0,0,0,50000,50000,0,50000,0,0,0,0,0.00,0.00,0.00,0.00
2016-07-24 15:30:00,0,50000,0,0.00,0,0,0,0,50000,50000,0,50000,0,0,0,0,0.00,0.00,0.00,0.00
2016-07-24 15:40:00,0,50000,0,0.00,0,0,0,0,50000,50000,0,50000,0,0,0,0,0.00,0.00,0.00,0.00
2016-07-24 15:50:00,0,49943,0,0.00,0,0,0,0,49432,50000,170,50000,0,0,0,0,0.00,0.00,0.00,0.00
2016-07-24 16:00:00,0,50000,0,0.00,0,0,0,0,50000,50000,0,50000,0,0,0,0,0.00,0.00,0.00,0.00
2016-07-24 16:10:00,0,50000,0,0.00,0,0,0,0,50000,50000,0,50000,0,0,0,0,0.00,0.00,0.00,0.00
2016-07-24 16:20:00,0,50000,0,0.00,0,0,0,0,50000,50000,0,50000,0,0,0,0,0.00,0.00,0.00,0.00
2016-07-24 16:30:00,0,50000,0,0.00,0,0,0,0,50000,50000,0,50000,0,0,0,0,0.00,0.00,0.00,0.00
2016-07-24 16:40:00,0,50000,0,0.00,0,0,0,0,50000,50000,0,50000,0,0,0,0,0.00,0.00,0.00,0.00
2016-07-24 16:50:00,0,50000,0,0.00,0,0,0,0,50000,50000,0,50000,0,0,0,0,0.00,0.00,0.00,0.00
2016-07-24 17:00:00,0,50000,0,0.00,0,0,0,0,50000,50000,0,50000,0,0,0,0,0.00,0.00,0.00,0.00
2016-07-24 17:10:00,0,49987,0,0.00,0,0,0,0,49870,50000,39,50000,0,0,0,0,0.00,0.00,0.00,0.00
2016-07-24 17:20:00,0,50000,0,0.00,0,0,0,0,50000,50000,0,50000,0,0,0,0,0.00,0.00,0.00,0.00
2016-07-24 17:30:00,0,50000,0,0.00,0,0,0,0,50000,50000,0,50000,0,0,0,0,0.00,0.00,0.00,0.00
2016-07-24 17:40:00,0,50000,0,0.00,0,0,0,0,50000,50000,0,50000,0,0,0,0,0.00,0.00,0.00,0.00
2016-07-24 17:50:00,0,50000,0,0.00,0,0,0,0,50000,50000,0,50000,0,0,0,0,0.00,0.00,0.00,0.00
2016-07-24 18:00:00,0,50000,0,0.00,0,0,0,0,50000,50000,0,50000,0,0,0,0,0.00,0.00,0.00,0.00
2016-07-24 18:10:00,0,50000,0,0.00,0,0,0,0,50000,50000,0,50000,0,0,0,0,0.00,0.00,0.00,0.00
2016-07-24 18:20:00,0,50000,0,0.00,0,0,0,0,50000,50000,0,50000,0,0,0,0,0.00,0.00,0.00,0.00
2016-07-24 18:30:00,0,50000,0,0.00,0,0,0,0,50000,50000,0,50000,0,0,0,0,0.00,0.00,0.00,0.00
2016-07-24 18:40:00,0,50000,0,0.00,0,0,0,0,50000,50000,0,50000,0,0,0,0,0.00,0.00,0.00,0.00
2016-07-24 18:50:00,0,50000,0,0.00,0,0,0,0,50000,50000,0,50000,0,0,0,0,0.00,0.00,0.00,0.00
2016-07-24 19:00:00,0,50000,0,0.00,0,0,0,0,50000,50000,0,50000,0,0,0,0,0.00,0.00,0.00,0.00
2016-07-24 19:10:00,0,50000,0,0.00,0,0,0,0,50000,50000,0,50000,0,0,0,0,0.00,0.00,0.00,0.00
2016-07-24 19:20:00,0,50000,0,0.00,0,0,0,0,50000,50000,0,50000,0,0,0,0,0.00,0.00,0.00,0.00
2016-07-24 19:30:00,0,49788,0,0.00,0,0,0,0,47880,50000,636,50000,0,0,0,0,0.00,0.00,0.00,0.00
2016-07-24 19:40:00,0,50000,0,0.00,0,0,0,0,50000,50000,0,50000,0,0,0,0,0.00,0.00,0.00,0.00
2016-07-24 19:50:00,0,50000,0,0.00,0,0,0,0,50000,50000,0,50000,0,0,0,0,0.00,0.00,0.00,0.00
2016-07-24 20:00:00,0,50000,0,0.00,0,0,0,0,50000,50000,0,50000,0,0,0,0,0.00,0.00,0.00,0.00
2016-07-24 20:10:00,0,50000,0,0.00,0,0,0,0,50000,50000,0,50000,0,0,0,0,0.00,0.00,0.00,0.00
2016-07-24 20:20:00,0,50000,0,0.00,0,0,0,0,50000,50000,0,50000,0,0,0,0,0.00,0.00,0.00,0.00
2016-07-24 20:30:00,0,50000,0,0.00,0,0,0,0,50000,50000,0,50000,0,0,0,0,0.00,0.00,0.00,0.00
2016-07-24 20:40:00,0,50000,0,0.00,0,2,1,0,50000,50000,0,50000,0,0,0,0,0.00,0.00,0.00,0.00
2016-07-24 20:50:00,1,50000,0,0.00,0,2,1,1,50000,50000,0,50000,0,0,0,0,0.00,0.00,0.00,0.00
2016-07-24 21:00:00,2,49975,0,0.00,2,2,0,2,49750,50000,75,50000,0,0,0,0,0.00,0.00,0.00,0.00
2016-07-24 21:10:00,2,49953,0,0.00,0,2,1,2,49533,50000,140,50000,0,0,0,0,0.00,0.00,0.00,0.00
2016-07-24 21:20:00,2,50000,0,0.00,0,2,1,2,50000,50000,0,50000,0,0,0,0,0.00,0.00,0.00,0.00
2016-07-24 21:30:00,2,49802,0,0.00,2,2,0,2,49002,50000,396,50000,0,0,0,0,0.00,0.00,0.00,0.00
2016-07-24 21:40:00,2,49624,0,0.00,2,2,0,2,47624,50000,783,50000,0,0,0,0,0.00,0.00,0.00,0.00
2016-07-24 21:50:00,0,50000,0,0.00,0,2,1,0,50000,50000,0,50000,0,0,0,0,0.00,0.00,0.00,0.00
2016-07-24 22:00:00,0,49714,0,0.00,0,0,0,0,47920,50000,642,50000,0,0,0,0,0.00,0.00,0.00,0.00
2016-07-24 22:10:00,0,50000,0,0.00,0,0,0,0,50000,50000,0,50000,0,0,0,0,0.00,0.00,0.00,0.00
2016-07-24 22:20:00,1,48631,0,0.00,0,2,1,0,43108,50000,2591,50000,0,0,0,0,0.00,0.00,0.00,0.00
2016-07-24 22:30:00,2,47707,0,0.00,2,2,0,2,44209,50000,2558,49338,0,0,0,0,0.00,0.00,0.00,0.00
2016-07-24 22:40:00,2,44670,0,0.00,0,2,1,2,30181,50000,7109,47634,0,0,0,0,0.00,0.00,0.00,0.00
2016-07-24 22:50:00,2,44024,0,0.00,2,2,0,2,32618,50000,5104,43700,0,0,0,0,0.00,0.00,0.00,0.00
2016-07-24 23:00:00,2,48866,0,0.00,2,2,0,2,46033,50000,1510,50000,0,0,0,0,0.00,0.00,0.00,0.00
2016-07-24 23:10:00,2,47656,0,0.00,2,2,0,2,41968,50000,3055,49802,0,0,0,0,0.00,0.00,0.00,0.00
2016-07-24 23:20:00,1,47214,0,0.00,0,2,1,0,42831,50000,3054,48678,0,0,0,0,0.00,0.00,0.00,0.00
2016-07-24 23:30:00,2,41981,0,0.00,0,2,1,2,29833,50000,6573,42684,0,0,0,0,0.00,0.00,0.00,0.00
2016-07-24 23:40:00,2,44580,0,0.00,2,2,0,2,30150,50000,7070,50000,0,0,0,0,0.00,0.00,0.00,0.00
2016-07-24 23:50:00,2,42473,0,0.00,2,2,0,2,29834,50000,6362,41871,0,0,0,0,0.00,0.00,0.00,0.00
